Location: La Brionne
(46.1728°N, 1.7849°E)
Time: 21:42:48
(UTC+00:00)

GP-B - Pass Details

Date: 16 June 2021
Orbit: 631 x 635 km, 89.8° (Epoch: 02 August)

Event Time Altitude Azimuth Distance (km) Brightness Sun altitude
Rises 23:29:26 0° 8° (N) 2,945 8.0 -20.2°
Reaches altitude 10° 23:31:48 10° 16° (NNE) 2,031 6.7 -20.3°
Maximum altitude 23:35:59 39° 86° (E) 958 4.0 -20.3°
Enters shadow 23:37:06 33° 120° (ESE) 1,067 3.9 -20.3°
